Weather History for KALS - April, 2013

Change the Weather History Date:

Friday, April 19, 2013

  Actual Average Record
Temperature  
Mean Temperature 31 °F 43 °F  
Max Temperature 55 °F 60 °F 74 °F (1989)
Min Temperature 6 °F 25 °F 6 °F (2013)
Degree Days  
Heating Degree Days 34 22  
Month to date heating degree days 468 471  
Since 1 July heating degree days 8214 7777  
Cooling Degree Days 0 0  
Month to date cooling degree days 0 0  
Year to date cooling degree days 0 0  
Moisture  
Dew Point 6 °F    
Average Humidity 44    
Maximum Humidity 76    
Minimum Humidity 12    
Precipitation  
Precipitation 0.00 in 0.02 in 0.68 in (1947)
Month to date precipitation 0.33 0.36  
Year to date precipitation 0.89 1.41  
Snow  
Snow 0.00 in 0.10 in 5.20 in (1947)
Month to date snowfall 2.2 2.5  
Since 1 July snowfall 21.1 25.6  
Snow Depth 0.00 in    
Sea Level Pressure  
Sea Level Pressure 30.16 in    
Wind  
Wind Speed 6 mph (NNW)    
Max Wind Speed 17 mph    
Max Gust Speed 21 mph    
Visibility 10 miles    
Events      
T = Trace of Precipitation, MM = Missing Value Source: NWS Daily Summary

Daily Weather History Graph

Daily Weather History Graph

Search for Another Location

Airport or City:

Trip Planner

Search our weather history database for the weather conditions in past years. The results will help you decide how hot, cold, wet, or windy it might be!

Date:

Astronomy

Apr. 19, 2013 Rise Set
Actual Time 6:22 AM MDT 7:42 PM MDT
Civil Twilight 5:55 AM MDT 8:09 PM MDT
Nautical Twilight 5:23 AM MDT 8:42 PM MDT
Astronomical Twilight 4:49 AM MDT 9:16 PM MDT
Moon 1:37 PM MDT (4/19) 2:32 AM MDT (4/19)
Length of Visible Light 14h 14m
Length of Day
13h 19m
Waxing Gibbous, 62% of the Moon is Illuminated
Apr 19
Waxing Gibbous
Apr 25
Full
May 2
Last Quarter
May 9
New
May 17
First Quarter

Hourly Weather History & Observations

Time (MDT) Temp. Windchill Dew Point Humidity Pressure Visibility Wind Dir Wind Speed Gust Speed Precip Events Conditions
12:52 AM 21.9 °F 11.0 °F 1.9 °F 42% 30.26 in 10.0 mi North 10.4 mph - N/A   Clear
1:52 AM 15.1 °F 5.2 °F 3.0 °F 59% 30.30 in 10.0 mi North 6.9 mph - N/A   Clear
2:52 AM 12.0 °F 4.1 °F 3.0 °F 67% 30.30 in 10.0 mi NE 4.6 mph - N/A   Clear
3:52 AM 10.0 °F 0.4 °F -0.0 °F 64% 30.34 in 10.0 mi SSW 5.8 mph - N/A   Clear
4:52 AM 7.0 °F -1.7 °F -0.9 °F 70% 30.35 in 10.0 mi South 4.6 mph - N/A   Clear
5:52 AM 8.1 °F -2.0 °F -0.0 °F 70% 30.35 in 10.0 mi SW 5.8 mph - N/A   Clear
6:52 AM 8.1 °F -0.5 °F -0.0 °F 70% 30.38 in 10.0 mi WSW 4.6 mph - N/A   Clear
7:52 AM 19.9 °F 12.1 °F 3.0 °F 48% 30.35 in 10.0 mi SW 5.8 mph - N/A   Clear
8:52 AM 26.1 °F 20.5 °F 3.9 °F 39% 30.31 in 10.0 mi SSW 4.6 mph - N/A   Clear
9:52 AM 30.0 °F 25.2 °F 5.0 °F 35% 30.28 in 10.0 mi Variable 4.6 mph - N/A   Clear
10:52 AM 33.1 °F 30.0 °F 5.0 °F 31% 30.25 in 10.0 mi Variable 3.5 mph - N/A   Clear
11:52 AM 36.0 °F - 5.0 °F 27% 30.21 in 10.0 mi Calm Calm - N/A   Clear
12:52 PM 42.1 °F 38.4 °F 6.1 °F 23% 30.15 in 10.0 mi Variable 5.8 mph - N/A   Clear
1:52 PM 46.0 °F 44.8 °F 5.0 °F 19% 30.12 in 10.0 mi Variable 3.5 mph - N/A   Clear
2:52 PM 48.0 °F - 5.0 °F 17% 30.09 in 10.0 mi Variable 3.5 mph 18.4 mph N/A   Clear
3:52 PM 52.0 °F - 5.0 °F 15% 30.02 in 10.0 mi SE 6.9 mph - N/A   Clear
4:52 PM 55.0 °F - 5.0 °F 13% 29.99 in 10.0 mi Variable 5.8 mph - N/A   Clear
5:52 PM 53.1 °F - 5.0 °F 14% 29.99 in 10.0 mi Variable 4.6 mph - N/A   Clear
6:52 PM 50.0 °F - 7.0 °F 18% 30.01 in 10.0 mi North 12.7 mph - N/A   Clear
7:52 PM 46.0 °F 39.6 °F 12.9 °F 26% 29.99 in 10.0 mi NNE 15.0 mph - N/A   Overcast
8:52 PM 44.1 °F 40.8 °F 12.0 °F 27% 30.01 in 10.0 mi WNW 5.8 mph - N/A   Overcast
9:52 PM 42.1 °F 37.7 °F 12.9 °F 31% 30.01 in 10.0 mi North 6.9 mph - N/A   Overcast
10:52 PM 41.0 °F 35.2 °F 15.1 °F 35% 29.99 in 10.0 mi North 9.2 mph - N/A   Overcast
11:52 PM 39.9 °F 35.8 °F 14.0 °F 35% 29.97 in 10.0 mi North 5.8 mph - N/A   Overcast